This demonstration page uses our WeatherBlox Daily Observations layout. Learn more.

Left ArrowRight Arrow

39.08367, -84.50855

Hourly Observations for June 6, 2020

Temp ( °F °C ) Dew Point ( °F °C ) Humidity (%) Winds ( mph kmh ) Pressure ( in mb ) Visibility ( mi km ) Precip ( " mm )
12:53 am 00:53 Clear 76 24.4 67 19.4 74 74 Calm 29.93 1013 10 16.0934 0 0
1:53 am 01:53 Clear 72 22.2 67 19.4 84 84 WSW 3 6 29.93 1014 10 16.0934 0 0
2:53 am 02:53 Clear 70 21.1 66 18.9 87 87 SW 5 7 29.93 1013 10 16.0934 0 0
3:53 am 03:53 Clear 70 21.1 67 19.4 90 90 SW 3 6 29.93 1013 10 16.0934 0 0
4:53 am 04:53 Clear 67 19.4 66 18.9 97 97 Calm 29.93 1014 7 11.26538 0 0
5:36 am 05:36 Clear with Mist and Fog 67 19.4 66 18.9 97 97 Calm 29.94 1014 1.75 2.816345 0 0
5:46 am 05:46 Clear with Mist and Fog 67 19.4 66 18.9 97 97 Calm 29.94 1014 3 4.82802 0 0
5:53 am 05:53 Clear with Mist and Fog 67 19.4 66 18.9 97 97 Calm 29.94 1014 6 9.65604 0 0
6:04 am 06:04 Clear with Fog 66 18.9 66 18.9 100 100 Calm 29.95 1014 0.5 0.80467 0 0
6:14 am 06:14 Sunny with Mist and Fog 66 18.9 65 18.3 96 96 Calm 29.95 1014 2.5 4.02335 0 0
6:21 am 06:21 Sunny with Mist and Fog 66 18.9 66 18.9 100 100 Calm 29.95 1014 6 9.65604 0 0
6:53 am 06:53 Sunny with Mist and Fog 67 19.4 66 18.9 97 97 Calm 29.96 1015 5 8.0467 0 0
7:53 am 07:53 Sunny 70 21.1 68 20 93 93 Calm 29.96 1015 7 11.26538 0 0
8:53 am 08:53 Sunny 76 24.4 70 21.1 82 82 S 3 6 29.97 1015 9 14.48406 0 0
9:53 am 09:53 Sunny 81 27.2 70 21.1 69 69 Calm 29.97 1015 10 16.0934 0 0
10:53 am 10:53 Sunny 83 28.3 70 21.1 65 65 VRB 3 6 29.97 1015 10 16.0934 0 0
11:53 am 11:53 Sunny 86 30 71 21.7 61 61 WNW 5 7 29.98 1015 10 16.0934 0 0
12:53 pm 12:53 Partly Cloudy 88 31.1 69 20.6 54 54 W 6 9 29.97 1015 10 16.0934 0 0
1:53 pm 13:53 Mostly Sunny 90 32.2 70 21.1 52 52 NNW 8 13 29.95 1014 10 16.0934 0 0
2:53 pm 14:53 Partly Cloudy 91 32.8 66 18.9 44 44 NNW 6 9 29.94 1014 10 16.0934 0 0
3:53 pm 15:53 Mostly Sunny 92 33.3 68 20 46 46 VRB 5 7 29.93 1014 10 16.0934 0 0
4:53 pm 16:53 Partly Cloudy 91 32.8 64 17.8 41 41 NNW 8 13 29.91 1013 10 16.0934 0 0
5:53 pm 17:53 Partly Cloudy 91 32.8 64 17.8 41 41 NNW 7 11 29.91 1013 10 16.0934 0 0
6:53 pm 18:53 Mostly Sunny 90 32.2 63 17.2 41 41 NNW 6 9 29.9 1013 10 16.0934 0 0
7:53 pm 19:53 Sunny 88 31.1 59 15 38 38 NW 8 13 29.9 1013 10 16.0934 0 0
8:53 pm 20:53 Sunny 84 28.9 60 15.6 44 44 NNW 6 9 29.91 1013 10 16.0934 0 0
9:53 pm 21:53 Mostly Cloudy 82 27.8 59 15 46 46 N 8 13 29.93 1014 10 16.0934 0 0
10:53 pm 22:53 Clear 79 26.1 57 13.9 47 47 N 8 13 29.96 1015 10 16.0934 0 0
11:53 pm 23:53 Clear 78 25.6 50 10 37 37 NNE 7 11 29.97 1015 10 16.0934 0 0

Powered by AerisWeather